| time (UTC) | temp C | wind direction | speed KPH | gust KPH | rain 1hr cm | rain 24hr cm | rain mn cm | humidity % | barometer mb |
| 20260906163041 | 31 | 89 | 0.0 | 6.4 | 0.00 | 0.51 | 0.00 | 63 | 1013.2 |
| 20260906160035 | 30 | 331 | 3.2 | 8.0 | 0.00 | 0.51 | 0.00 | 67 | 1013.2 |
| 20260906153029 | 29 | 338 | 1.6 | 4.8 | 0.00 | 0.51 | 0.00 | 67 | 1012.9 |
| 20260906150043 | 28 | 335 | 0.0 | 1.6 | 0.00 | 0.51 | 0.00 | 68 | 1013.1 |
| 20260906143100 | 28 | 360 | 0.0 | 3.2 | 0.00 | 0.51 | 0.00 | 68 | 1012.8 |
| 20260906140053 | 27 | 360 | 1.6 | 3.2 | 0.00 | 0.51 | 0.00 | 72 | 1012.7 |
| 20260906133040 | 25 | 360 | 0.0 | 0.0 | 0.00 | 0.51 | 0.00 | 80 | 1012.8 |
| 20260906130053 | 23 | 360 | 0.0 | 1.6 | 0.00 | 0.51 | 0.00 | 89 | 1012.8 |
| 20260906123045 | 23 | 360 | 0.0 | 1.6 | 0.00 | 0.51 | 0.00 | 93 | 1012.7 |
| 20260906120039 | 23 | 360 | 1.6 | 4.8 | 0.00 | 0.51 | 0.00 | 94 | 1012.3 |
| 20260906113052 | 23 | 360 | 0.0 | 1.6 | 0.00 | 0.51 | 0.00 | 93 | 1011.9 |
| 20260906110047 | 23 | 360 | 0.0 | 0.0 | 0.00 | 0.51 | 0.00 | 91 | 1011.8 |
| 20260906103041 | 24 | 360 | 0.0 | 1.6 | 0.00 | 0.51 | 0.00 | 92 | 1011.6 |
| 20260906100029 | 24 | 360 | 0.0 | 3.2 | 0.00 | 0.51 | 0.00 | 96 | 1011.2 |
| 20260906093045 | 24 | 360 | 0.0 | 3.2 | 0.00 | 0.51 | 0.00 | 100 | 1011.1 |
| 20260906090103 | 23 | 360 | 0.0 | 1.6 | 0.00 | 0.51 | 0.00 | 100 | 1011.0 |
| 20260906083036 | 23 | 360 | 0.0 | 1.6 | 0.00 | 0.51 | 0.00 | 100 | 1010.5 |
| 20260906080050 | 23 | 360 | 0.0 | 0.0 | 0.00 | 0.51 | 0.00 | 100 | 1010.5 |
| 20260906073041 | 23 | 360 | 0.0 | 0.0 | 0.00 | 0.51 | 0.00 | 100 | 1010.9 |
| 20260906070035 | 23 | 360 | 0.0 | 0.0 | 0.00 | 0.51 | 0.00 | 99 | 1010.8 |
| 20260906063029 | 23 | 360 | 0.0 | 0.0 | 0.00 | 0.51 | 0.00 | 99 | 1011.0 |
| 20260906060039 | 23 | 360 | 0.0 | 0.0 | 0.00 | 0.51 | 0.00 | 98 | 1011.0 |
| 20260906053052 | 23 | 360 | 0.0 | 0.0 | 0.00 | 0.51 | 0.00 | 97 | 1010.9 |
| 20260906050043 | 23 | 360 | 0.0 | 0.0 | 0.00 | 0.51 | 0.51 | 96 | 1011.1 |
| 20260906043036 | 24 | 360 | 0.0 | 0.0 | 0.00 | 0.51 | 0.51 | 95 | 1010.7 |
| 20260906040030 | 24 | 360 | 0.0 | 0.0 | 0.00 | 0.51 | 0.51 | 94 | 1010.5 |
| 20260906033045 | 24 | 360 | 0.0 | 0.0 | 0.00 | 0.51 | 0.51 | 92 | 1010.5 |
| 20260906030057 | 25 | 360 | 0.0 | 0.0 | 0.00 | 0.51 | 0.51 | 92 | 1010.1 |
| 20260906023028 | 25 | 360 | 0.0 | 0.0 | 0.00 | 0.51 | 0.51 | 91 | 1009.7 |
| 20260906020041 | 26 | 360 | 0.0 | 0.0 | 0.00 | 0.51 | 0.51 | 89 | 1009.1 |
| 20260906013034 | 26 | 360 | 0.0 | 0.0 | 0.00 | 0.51 | 0.51 | 87 | 1009.0 |
| 20260906010046 | 27 | 360 | 0.0 | 0.0 | 0.00 | 0.51 | 0.51 | 82 | 1008.7 |
| 20260906003105 | 28 | 360 | 0.0 | 0.0 | 0.00 | 0.51 | 0.51 | 76 | 1008.5 |
| 20260906000037 | 30 | 360 | 0.0 | 0.0 | 0.00 | 0.51 | 0.51 | 73 | 1008.5 |
| 20260905233050 | 31 | 360 | 0.0 | 4.8 | 0.00 | 0.51 | 0.51 | 71 | 1008.5 |
| 20260905230041 | 31 | 360 | 4.8 | 6.4 | 0.00 | 0.51 | 0.51 | 72 | 1008.8 |
| 20260905223030 | 30 | 360 | 0.0 | 0.0 | 0.20 | 0.51 | 0.51 | 75 | 1008.9 |
| 20260905220042 | 27 | 360 | 3.2 | 14.5 | 0.25 | 0.51 | 0.51 | 61 | 1008.9 |
| 20260905213036 | 28 | 165 | 3.2 | 20.9 | 0.30 | 0.30 | 0.30 | 63 | 1008.5 |
| 20260905210049 | 29 | 94 | 4.8 | 20.9 | 0.25 | 0.25 | 0.25 | 63 | 1009.0 |
| 20260905203040 | 40 | 181 | 6.4 | 11.3 | 0.00 | 0.00 | 0.00 | 29 | 1008.9 |
| 20260905200033 | 39 | 305 | 6.4 | 14.5 | 0.00 | 0.00 | 0.00 | 29 | 1009.1 |
| 20260905193030 | 38 | 292 | 4.8 | 9.7 | 0.00 | 0.00 | 0.00 | 30 | 1009.6 |
| 20260905190044 | 37 | 316 | 4.8 | 16.1 | 0.00 | 0.00 | 0.00 | 34 | 1009.9 |
| 20260905183035 | 37 | 315 | 1.6 | 9.7 | 0.00 | 0.00 | 0.00 | 36 | 1010.1 |
| 20260905180030 | 36 | 179 | 1.6 | 9.7 | 0.00 | 0.00 | 0.00 | 40 | 1010.5 |
| 20260905173043 | 35 | 175 | 3.2 | 6.4 | 0.00 | 0.00 | 0.00 | 44 | 1010.8 |
| 20260905170035 | 33 | 175 | 1.6 | 4.8 | 0.00 | 0.00 | 0.00 | 48 | 1011.1 |